Weather History for KMDJ - March, 2014

Change the Weather History Date:

Saturday, March 8, 2014

  Actual Average Record
Temperature  
Mean Temperature 64 °F -  
Max Temperature 68 °F - - ()
Min Temperature 59 °F - - ()
Degree Days  
Heating Degree Days 2    
Growing Degree Days 14 (Base 50)    
Moisture  
Dew Point 56 °F    
Average Humidity 73    
Maximum Humidity 88    
Minimum Humidity 59    
Precipitation  
Precipitation 0.00 in - - ()
Sea Level Pressure  
Sea Level Pressure 30.13 in    
Wind  
Wind Speed 12 mph (ESE)    
Max Wind Speed 17 mph    
Max Gust Speed 17 mph    
Visibility 10 miles    
Events      
T = Trace of Precipitation, MM = Missing Value Source: NWS Daily Summary

Daily Weather History Graph

Daily Weather History Graph

Search for Another Location

Airport or City:

Trip Planner

Search our weather history database for the weather conditions in past years. The results will help you decide how hot, cold, wet, or windy it might be!

Date:

Astronomy

Mar. 08, 2014 Rise Set
Actual Time 6:16 AM CST 6:03 PM CST
Civil Twilight 5:53 AM CST 6:27 PM CST
Nautical Twilight 5:25 AM CST 6:54 PM CST
Astronomical Twilight 4:58 AM CST 7:21 PM CST
Moon 11:27 AM CST (3/8) 12:32 AM CST (3/8)
Length of Visible Light 12h 34m
Length of Day
11h 46m
First Quarter, 52% of the Moon is Illuminated
Mar 8
First Quarter
Mar 16
Full
Mar 23
Last Quarter
Mar 30
New
Apr 7
First Quarter

Hourly Weather History & Observations

Time (CST) Temp. Dew Point Humidity Pressure Visibility Wind Dir Wind Speed Gust Speed Precip Events Conditions
12:15 AM 59.0 °F 51.8 °F 77% 30.08 in 10.0 mi ESE 13.8 mph - N/A   Overcast
12:35 AM 59.0 °F 51.8 °F 77% 30.08 in 10.0 mi SE 13.8 mph - N/A   Overcast
12:55 AM 59.0 °F 51.8 °F 77% 30.08 in 10.0 mi SE 12.7 mph - N/A   Overcast
1:15 AM 59.0 °F 51.8 °F 77% 30.08 in 10.0 mi ESE 12.7 mph - N/A   Overcast
1:35 AM 60.8 °F 51.8 °F 72% 30.08 in 10.0 mi SE 12.7 mph - N/A   Overcast
1:55 AM 60.8 °F 51.8 °F 72% 30.09 in 10.0 mi ESE 10.4 mph - N/A   Overcast
2:15 AM 60.8 °F 53.6 °F 77% 30.08 in 10.0 mi SE 11.5 mph 17.3 mph N/A   Overcast
2:35 AM 60.8 °F 51.8 °F 72% 30.09 in 10.0 mi SSE 12.7 mph - N/A   Overcast
2:55 AM 60.8 °F 51.8 °F 72% 30.08 in 10.0 mi SSE 11.5 mph - N/A   Overcast
3:15 AM 60.8 °F 51.8 °F 72% 30.08 in 10.0 mi SSE 15.0 mph - N/A   Overcast
3:35 AM 62.6 °F 51.8 °F 68% 30.08 in 10.0 mi SSE 12.7 mph - N/A   Overcast
3:55 AM 62.6 °F 51.8 °F 68% 30.08 in 10.0 mi SSE 13.8 mph - N/A   Overcast
4:15 AM 62.6 °F 50.0 °F 63% 30.10 in 10.0 mi South 9.2 mph - N/A   Overcast
4:35 AM 62.6 °F 51.8 °F 68% 30.11 in 10.0 mi SSE 6.9 mph - N/A   Overcast
4:55 AM 62.6 °F 51.8 °F 68% 30.10 in 10.0 mi South 10.4 mph - N/A   Overcast
5:15 AM 62.6 °F 51.8 °F 68% 30.11 in 10.0 mi SSE 8.1 mph - N/A   Overcast
5:35 AM 62.6 °F 53.6 °F 72% 30.11 in 10.0 mi SSE 6.9 mph - N/A   Overcast
5:55 AM 62.6 °F 51.8 °F 68% 30.13 in - South 3.5 mph - N/A   Overcast
6:15 AM 62.6 °F 51.8 °F 68% 30.12 in - SSE 9.2 mph - N/A   Overcast
6:35 AM 64.4 °F 51.8 °F 64% 30.12 in 10.0 mi SSE 13.8 mph - N/A   Overcast
6:55 AM 64.4 °F 51.8 °F 64% 30.13 in 10.0 mi SSE 13.8 mph - N/A   Overcast
7:15 AM 64.4 °F 50.0 °F 59% 30.14 in 10.0 mi SSE 9.2 mph 17.3 mph N/A   Mostly Cloudy
7:35 AM 66.2 °F 51.8 °F 60% 30.14 in 10.0 mi SSE 10.4 mph - N/A   Clear
7:55 AM 66.2 °F 51.8 °F 60% 30.15 in 10.0 mi SE 9.2 mph - N/A   Partly Cloudy
8:15 AM 66.2 °F 51.8 °F 60% 30.15 in 10.0 mi SSE 15.0 mph - N/A   Partly Cloudy
8:35 AM 66.2 °F 51.8 °F 60% 30.16 in 10.0 mi SSE 13.8 mph - N/A   Partly Cloudy
8:55 AM 66.2 °F 53.6 °F 64% 30.15 in 10.0 mi SSE 15.0 mph - N/A   Mostly Cloudy
9:15 AM 66.2 °F 53.6 °F 64% 30.16 in 10.0 mi SSE 11.5 mph - N/A   Mostly Cloudy
9:35 AM 66.2 °F 53.6 °F 64% 30.16 in 10.0 mi SSE 11.5 mph - N/A   Partly Cloudy
9:55 AM 66.2 °F 53.6 °F 64% 30.17 in 10.0 mi SSE 10.4 mph - N/A   Mostly Cloudy
10:15 AM 66.2 °F 53.6 °F 64% 30.18 in 10.0 mi South 9.2 mph - N/A   Overcast
10:35 AM 68.0 °F 55.4 °F 64% 30.18 in 10.0 mi South 10.4 mph - N/A   Overcast
10:55 AM 68.0 °F 55.4 °F 64% 30.18 in 10.0 mi South 9.2 mph - N/A   Overcast
11:15 AM 68.0 °F 55.4 °F 64% 30.17 in 10.0 mi South 4.6 mph - N/A   Overcast
11:35 AM 64.4 °F 57.2 °F 77% 30.17 in 10.0 mi NE 9.2 mph - N/A   Overcast
11:55 AM 64.4 °F 57.2 °F 77% 30.16 in 10.0 mi NE 8.1 mph - N/A   Overcast
12:15 PM 64.4 °F 57.2 °F 77% 30.15 in 10.0 mi NNE 5.8 mph - N/A   Overcast
12:35 PM 64.4 °F 57.2 °F 77% 30.14 in 10.0 mi NNE 6.9 mph - N/A   Overcast
12:55 PM 64.4 °F 57.2 °F 77% 30.13 in 10.0 mi NE 9.2 mph - N/A   Overcast
1:15 PM 64.4 °F 57.2 °F 77% 30.13 in 10.0 mi NE 10.4 mph - N/A   Overcast
1:35 PM 64.4 °F 57.2 °F 77% 30.13 in 10.0 mi NE 10.4 mph - N/A   Mostly Cloudy
1:55 PM 64.4 °F 57.2 °F 77% 30.13 in 10.0 mi NNE 9.2 mph - N/A   Mostly Cloudy
2:15 PM 64.4 °F 57.2 °F 77% 30.12 in 10.0 mi NNE 10.4 mph - N/A   Overcast
2:35 PM 64.4 °F 57.2 °F 77% 30.11 in 10.0 mi NNE 10.4 mph - N/A   Overcast
2:55 PM 64.4 °F 57.2 °F 77% 30.12 in 10.0 mi NNE 11.5 mph - N/A   Overcast
3:15 PM 64.4 °F 59.0 °F 83% 30.12 in 10.0 mi NNE 10.4 mph - N/A   Overcast
3:35 PM 64.4 °F 59.0 °F 83% 30.12 in 10.0 mi NNE 11.5 mph - N/A   Overcast
3:55 PM 64.4 °F 57.2 °F 77% 30.12 in 10.0 mi NNE 11.5 mph - N/A   Overcast
4:15 PM 64.4 °F 59.0 °F 83% 30.12 in 10.0 mi NNE 11.5 mph - N/A   Overcast
4:35 PM 64.4 °F 59.0 °F 83% 30.12 in 10.0 mi NE 12.7 mph - N/A   Overcast
4:55 PM 64.4 °F 59.0 °F 83% 30.14 in 10.0 mi NE 10.4 mph - N/A   Overcast
5:15 PM 64.4 °F 59.0 °F 83% 30.14 in 10.0 mi NNE 10.4 mph - N/A   Overcast
5:35 PM 64.4 °F 59.0 °F 83% 30.14 in 10.0 mi NE 10.4 mph - N/A   Overcast
5:55 PM 64.4 °F 60.8 °F 88% 30.13 in 10.0 mi NE 11.5 mph - N/A   Mostly Cloudy
6:15 PM 64.4 °F 60.8 °F 88% 30.13 in 10.0 mi ENE 9.2 mph - N/A   Overcast
6:35 PM 66.2 °F 59.0 °F 78% 30.14 in 10.0 mi SSE 6.9 mph - N/A   Overcast
6:55 PM 68.0 °F 59.0 °F 73% 30.15 in 10.0 mi ESE 11.5 mph - N/A   Overcast
7:15 PM 68.0 °F 59.0 °F 73% 30.15 in 10.0 mi ESE 13.8 mph - N/A   Overcast
7:35 PM 68.0 °F 59.0 °F 73% 30.16 in 10.0 mi SE 15.0 mph - N/A   Overcast
7:55 PM 68.0 °F 59.0 °F 73% 30.16 in 10.0 mi East 13.8 mph - N/A   Overcast
8:15 PM 68.0 °F 60.8 °F 78% 30.16 in 10.0 mi East 15.0 mph - N/A   Mostly Cloudy
8:35 PM 66.2 °F 59.0 °F 78% 30.17 in 10.0 mi East 15.0 mph - N/A   Overcast
8:55 PM 66.2 °F 59.0 °F 78% 30.17 in 10.0 mi East 16.1 mph - N/A   Mostly Cloudy
9:15 PM 66.2 °F 60.8 °F 83% 30.17 in 10.0 mi East 16.1 mph - N/A   Overcast
9:35 PM 66.2 °F 59.0 °F 78% 30.18 in 10.0 mi East 13.8 mph - N/A   Scattered Clouds
9:55 PM 66.2 °F 59.0 °F 78% 30.17 in 10.0 mi East 16.1 mph - N/A   Mostly Cloudy
10:15 PM 66.2 °F 59.0 °F 78% 30.17 in - East 15.0 mph - N/A   Overcast
10:55 PM 66.2 °F 59.0 °F 78% 30.17 in 10.0 mi East 16.1 mph - N/A   Scattered Clouds
11:15 PM 66.2 °F 59.0 °F 78% 30.17 in 10.0 mi East 16.1 mph - N/A   Scattered Clouds
11:35 PM 66.2 °F 59.0 °F 78% 30.17 in 10.0 mi East 17.3 mph - N/A   Mostly Cloudy
11:55 PM 66.2 °F 59.0 °F 78% 30.17 in 10.0 mi East 16.1 mph - N/A   Scattered Clouds